Preview of NWS' New Version of Forecast
This preview is not operational and should not be used for support decisions.

Regional Weather Roundup (RWR)

Issued by National Weather Service (NWS)

                            
000
ASUS42 KTBW 211017
RWRFL 
FLORIDA REGIONAL WEATHER ROUNDUP
NATIONAL WEATHER SERVICE TAMPA BAY RUSKIN FL
500 AM EST THU FEB 21 2019

NOTE: "FAIR" INDICATES FEW OR NO CLOUDS BELOW 12,000 FEET WITH NO
SIGNIFICANT WEATHER AND/OR OBSTRUCTIONS TO VISIBILITY.

FLZ001>010-012>015-112-114-115-211100-
PANHANDLE FLORIDA
  
CITY           SKY/WX    TMP DP  RH WIND       PRES   REMARKS
PENSACOLA      FOG       70  68  93 S5        30.00R VSB 1/4          
PENSACOLA NAS  FOG       68  68 100 S6        29.99S VSB 1/4          
MILTON NAS     FOG       69  69 100 S6        30.00S VSB 1/4          
CRESTVIEW      FOG       69  68  96 S5        30.03R VSB 1/2          
DUKE FIELD     DRIZZLE   68  68 100 S3        30.02R FOG              
VALPARAISO     FOG       67  67 100 CALM      30.01R VSB 3/8          
MARY ESTHER    FOG       67  66  98 CALM      30.00  VSB 1/4          
PANAMA CITY    FOG       70  69  97 SE7       30.02R VSB 3/4          
TYNDALL AFB    FOG       68  68 100 S12       30.01R VSB 5/8          
APALACHICOLA   FOG       66  65  96 S6        30.02S VSB 1/4          

STATION/POSITION SKY/WX   TEMP    WIND        PRES    WAVE   SWELL
                          AIR SEA DIR/SP/G            HT/PER HT/PER
                          (F)     (DEG/KT/KT) (MB)    (FT/S) (FT/S)
30.1N   87.6W              67     160/  4/  6 1015.9    3/ 7   3/ 7
29.2N   88.2W                     150/  2/  4 1015.4S   4/ 8   5/ 8
PANAMA CITY BEAC           66 63  120/ 12/ 12 1016.4R
TOWER C                    68     180/ 15/ 16 1016.6S

$$
FLZ011-016>038-118-127-128-134-139-239-211100-
NORTH FLORIDA
  
CITY           SKY/WX    TMP DP  RH WIND       PRES   REMARKS
MARIANNA       CLOUDY    70  70 100 S6        30.02R FOG              
TALLAHASSEE    CLOUDY    69  69 100 S6        30.04S                  
PERRY          CLOUDY    67  67  97 SE6       30.07S FOG              
LIVE OAK       PTCLDY    66  66 100 CALM      30.07R FOG              
CROSS CITY     CLOUDY    62  62  99 CALM      30.08R FOG              
LAKE CITY      CLOUDY    63  63 100 CALM      30.08S FOG              
GAINESVILLE    CLOUDY    66  63  90 CALM      30.11R FOG              
WILLISTON        N/A    N/A N/A N/A MISG        N/A                   
PALATKA        CLOUDY   N/A N/A N/A SE3       30.09R                  
MAYPORT NAS    LGT RAIN  69  68  96 S7        30.09R                  
JACKSONVILLE   MOCLDY    69  69 100 S6        30.08R                  
JAX NAS        MOCLDY    69  69 100 CALM      30.09S FOG              
JAX CECIL      FOG       68  68 100 CALM      30.09R VSB 1/4          
FERNANDINA BEA CLOUDY    70  69  96 S8        30.08S                  
ST AUGUSTINE   CLOUDY    67  66  97 CALM      30.11R                  
PALM COAST     FOG       64  63  99 SE3       30.10R VSB 1/2          

STATION/POSITION SKY/WX   TEMP    WIND        PRES    WAVE   SWELL
                          AIR SEA DIR/SP/G            HT/PER HT/PER
                          (F)     (DEG/KT/KT) (MB)    (FT/S) (FT/S)
SHELL POINT      NOT AVBL
KEATON BEACH               69     120/  6/  7 1018.1R
CEDAR KEY                  71     100/  4/  4 1018.2S
FERNANDINA                 70 63  150/  4/  6 1019.2F
30.7N   81.3W                 59                N/A     4/ 8
MAYPORT                    69 63  160/  4/  5 1018.9R
31.4N   80.9W              61 58  180/ 10/ 12 1018.3S   5/ 8   3/ 8
ST AUGUSTINE               63 61  180/  5/  6 1019.2R

$$
FLZ040-043>046-052-053-057-058-063-144-211100-
INTERIOR CENTRAL FLORIDA
  
CITY           SKY/WX    TMP DP  RH WIND       PRES   REMARKS
OCALA          FAIR      68  66  93 S5        30.09S                  
LEESBURG       FAIR      69  67  93 S5        30.10R                  
SANFORD        FAIR      68  68 100 S5        30.10R                  
ORLANDO EXEC   FOG       67  66  97 CALM      30.10R VSB 3/4          
ORLANDO INTL   FAIR      67  66  97 CALM      30.10R                  
KISSIMMEE      FAIR      67  66  97 CALM      30.11R FOG              
WINTER HAVEN   FAIR      68  65  90 CALM      30.10S FOG              
BARTOW         CLOUDY    64  63  94 CALM      30.09R FOG              
SEBRING        CLOUDY    64  64 100 E5        30.09S FOG              
OKEECHOBEE     FAIR      68  68 100 CALM      30.08S                  

$$
FLZ041-047-054-059-064-141-147-211100-
EAST CENTRAL FLORIDA
  
CITY           SKY/WX    TMP DP  RH WIND       PRES   REMARKS
DAYTONA BEACH  FAIR      65  65 100 CALM      30.10R FOG              
DELAND         FAIR      66  66 100 CALM      30.10R                  
JFK SPACE CTR  FAIR     N/A N/A N/A S3          N/A                   
CAPE CANAVERAL FAIR      67  66  96 S5        30.08S                  
PATRICK AFB    FAIR      66  66 100 SE5       30.09R FOG              
MELBOURNE      FAIR      73  68  84 SE10      30.09R                  
VERO BEACH     FAIR      71  69  93 SE8       30.09S                  
FT PIERCE      FAIR      73  68  84 SE8       30.09S                  
STUART         FAIR      73  68  83 CALM      30.11R                  

STATION/POSITION SKY/WX   TEMP    WIND        PRES    WAVE   SWELL
                          AIR SEA DIR/SP/G            HT/PER HT/PER
                          (F)     (DEG/KT/KT) (MB)    (FT/S) (FT/S)
28.5N   80.2W              69     150/ 10/ 12 1019.4
28.9N   78.5W              75 78  150/ 16/ 19 1021.2R   8/ 8
TRIDENT PIER               67 69  160/  5/  6 1020.0R
28.4N   80.5W                 67                N/A     3/ 9

$$
FLZ050-056-061-142-242-148-248-149-249-151-251-155-255-
160-260-211100-
WEST CENTRAL FLORIDA
  
CITY           SKY/WX    TMP DP  RH WIND       PRES   REMARKS
CRYSTAL RIVER  FAIR      63  63 100 CALM      30.08S                  
INVERNESS      FAIR      64  64 100 CALM      30.09S                  
BROOKSVILLE    FAIR      68  65  90 SE7       30.08S                  
CLEARWATER AIR FAIR      70  66  88 SE3       30.07R                  
ST PETE CLEARW FAIR      69  65  86 SE6       30.07S                  
TAMPA INTL     FAIR      71  66  84 SE5       30.08S                  
TAMPA EXEC     FAIR      63  63 100 CALM      30.09S FOG              
PLANT CITY     FAIR      68  66  94 CALM      30.11R                  
MACDILL AFB    FAIR      68  64  89 E7        30.07S                  
PETER O KNIGHT MOCLDY    70  70 100 E5        30.09R                  
ST PETERSBURG  FAIR      70  67  90 SE9       30.06R                  
SARASOTA       FAIR      66  65  96 E5        30.05S                  
VENICE         CLOUDY    70  70 100 E6        30.07S                  

STATION/POSITION SKY/WX   TEMP    WIND        PRES    WAVE   SWELL
                          AIR SEA DIR/SP/G            HT/PER HT/PER
                          (F)     (DEG/KT/KT) (MB)    (FT/S) (FT/S)
27.3N   84.2W                 72                N/A     3/ 6
CLEARWATER BEACH           71 71  120/  5/  6 1018.3R
MIDDLE TAMPA BAY           68     130/  6/  7 1018.4S
VENICE                     70 70  110/  6/  7   N/A

$$
FLZ066-069-070-075>078-162-262-165-265-211100-
SOUTHWEST FLORIDA AND KEYS
  
CITY           SKY/WX    TMP DP  RH WIND       PRES   REMARKS
PUNTA GORDA    FAIR      67  65  93 SE7       30.07F                  
FT MYERS       FAIR      69  67  93 SE7       30.06S                  
SOUTHWEST INTL FAIR      67  66  97 E5        30.07S                  
NAPLES         FAIR      70  68  93 E6        30.06S                  
MARCO ISLAND   FAIR     N/A N/A N/A E6        30.07S                  
IMMOKALEE      MOCLDY    68  68 100 CALM      30.06S                  
MARATHON       FAIR      80  71  74 SE8       30.05S                  
KEY WEST NAS   FAIR      78  71  79 SE13      30.04S                  
KEY WEST INTL  FAIR      78  72  81 SE10      30.04S                  

STATION/POSITION SKY/WX   TEMP    WIND        PRES    WAVE   SWELL
                          AIR SEA DIR/SP/G            HT/PER HT/PER
                          (F)     (DEG/KT/KT) (MB)    (FT/S) (FT/S)
NAPLES                     72 73   90/  3/  5 1017.8F
26.0N   85.6W              78 79  140/ 14/ 17 1016.0
DRY TORTUGAS               78     140/ 14/ 15 1016.5F
SAND KEY                   77                 1017.1F
SOMBRERO KEY               77                 1016.9F
LONG KEY                   77 78  130/ 14/ 16 1017.5R
MOLASSES REEF              77 78  140/ 20/ 21 1018.1S

$$
FLZ067-068-071>074-168-172>174-211100-
SOUTHEAST FLORIDA 
  
CITY           SKY/WX    TMP DP  RH WIND       PRES   REMARKS
W PALM BEACH   FAIR      76  68  76 SE13      30.09S                  
FT LAUDER-EXEC LGT RAIN  76  72  87 SE12      30.07F                  
FT LAUDERDALE  MOCLDY    77  73  87 SE14      30.07S                  
POMPANO BEACH  LGT RAIN  77  69  76 SE17      30.08S                  
PEMBROKE PINES FAIR      76  69  79 SE12      30.09S                  
OPA LOCKA      FAIR      76  69  79 SE16      30.08S                  
MIAMI          MOCLDY    76  71  85 SE10      30.08R                  
WEST KENDALL   FAIR      77  70  79 SE8       30.07R                  
HOMESTEAD      FAIR      76  70  81 SE10      30.06R                  

STATION/POSITION SKY/WX   TEMP    WIND        PRES    WAVE   SWELL
                          AIR SEA DIR/SP/G            HT/PER HT/PER
                          (F)     (DEG/KT/KT) (MB)    (FT/S) (FT/S)
PORT EVERGLADES            77     130/ 13/ 18 1018.4
VIRGINIA KEY               77 79  120/ 13/ 16 1017.8R
LAKE WORTH                 77 77  140/ 18/ 20 1019.8R
FOWEY ROCKS                77 77  130/ 20/ 21 1018.8R
SETTLEMENT POINT           74     130/  7/  9 1019.6F

$$